Time,TemperatureF,DewpointF,PressureIn,WindDirection,WindDirectionDegrees,WindSpeedMPH,WindSpeedGustMPH,Humidity,HourlyPrecipIn,Conditions,Clouds,dailyrainin,SoftwareType,DateUTC
2013-03-10 00:05:00,50.3,36.0,30.03,East,86,0.0,1.0,59,0.00,,,0.00,weatherlink.com 1.10,2013-03-10 05:05:00,
2013-03-10 00:20:00,50.5,36.0,30.03,East,86,0.0,1.0,58,0.00,,,0.00,weatherlink.com 1.10,2013-03-10 05:20:00,
2013-03-10 00:35:00,50.3,36.0,30.02,East,86,0.0,1.0,58,0.00,,,0.00,weatherlink.com 1.10,2013-03-10 05:35:00,
2013-03-10 00:50:00,50.6,35.0,30.02,East,86,0.0,1.0,56,0.00,,,0.00,weatherlink.com 1.10,2013-03-10 05:50:00,
2013-03-10 01:05:00,51.2,35.0,30.02,ESE,113,1.0,3.0,55,0.00,,,0.00,weatherlink.com 1.10,2013-03-10 06:05:00,
2013-03-10 01:20:00,51.4,35.0,30.02,SE,130,0.0,2.0,53,0.00,,,0.00,weatherlink.com 1.10,2013-03-10 06:20:00,
2013-03-10 01:35:00,51.6,34.0,30.02,SE,130,1.0,2.0,52,0.00,,,0.00,weatherlink.com 1.10,2013-03-10 06:35:00,
2013-03-10 01:50:00,52.5,35.0,30.02,South,174,2.0,5.0,52,0.00,,,0.00,weatherlink.com 1.10,2013-03-10 06:50:00,
2013-03-10 03:05:00,53.2,34.0,30.02,South,180,2.0,4.0,49,0.00,,,0.00,weatherlink.com 1.10,2013-03-10 07:05:00,
2013-03-10 03:20:00,53.2,35.0,30.01,SSE,147,0.0,5.0,50,0.00,,,0.00,weatherlink.com 1.10,2013-03-10 07:20:00,
2013-03-10 03:35:00,52.7,35.0,30.01,SSE,156,2.0,5.0,51,0.00,,,0.00,weatherlink.com 1.10,2013-03-10 07:35:00,
2013-03-10 03:50:00,52.4,35.0,30.00,SE,130,1.0,6.0,51,0.00,,,0.00,weatherlink.com 1.10,2013-03-10 07:50:00,
2013-03-10 04:05:00,52.1,34.0,30.00,ESE,105,0.0,4.0,51,0.00,,,0.00,weatherlink.com 1.10,2013-03-10 08:05:00,
2013-03-10 04:20:00,51.9,35.0,29.98,ESE,121,3.0,7.0,52,0.00,,,0.00,weatherlink.com 1.10,2013-03-10 08:20:00,
2013-03-10 04:35:00,52.0,35.0,29.98,SSE,168,0.0,4.0,52,0.00,,,0.00,weatherlink.com 1.10,2013-03-10 08:35:00,
2013-03-10 04:50:00,51.7,35.0,29.98,ESE,119,0.0,3.0,53,0.00,,,0.00,weatherlink.com 1.10,2013-03-10 08:50:00,
2013-03-10 05:05:00,50.8,34.0,29.98,SSE,148,1.0,3.0,54,0.00,,,0.00,weatherlink.com 1.10,2013-03-10 09:05:00,
2013-03-10 05:20:00,50.2,34.0,29.98,SE,143,0.0,2.0,55,0.00,,,0.00,weatherlink.com 1.10,2013-03-10 09:20:00,
2013-03-10 05:35:00,49.6,36.0,29.99,SE,143,0.0,0.0,59,0.00,,,0.00,weatherlink.com 1.10,2013-03-10 09:35:00,
2013-03-10 05:50:00,48.4,36.0,29.99,SE,143,0.0,0.0,63,0.00,,,0.00,weatherlink.com 1.10,2013-03-10 09:50:00,
2013-03-10 06:05:00,47.4,35.0,29.99,SE,143,0.0,0.0,63,0.00,,,0.00,weatherlink.com 1.10,2013-03-10 10:05:00,
2013-03-10 06:20:00,47.2,35.0,30.00,SE,143,0.0,0.0,64,0.00,,,0.00,weatherlink.com 1.10,2013-03-10 10:20:00,
2013-03-10 06:35:00,47.1,36.0,30.01,SSE,147,0.0,2.0,66,0.00,,,0.00,weatherlink.com 1.10,2013-03-10 10:35:00,
2013-03-10 06:50:00,46.9,36.0,30.01,SW,223,1.0,2.0,65,0.00,,,0.00,weatherlink.com 1.10,2013-03-10 10:50:00,
2013-03-10 07:05:00,46.7,37.0,30.01,SW,223,0.0,1.0,68,0.00,,,0.00,weatherlink.com 1.10,2013-03-10 11:05:00,
2013-03-10 07:21:00,46.5,36.0,30.01,SW,224,0.0,0.0,68,0.00,,,0.00,weatherlink.com 1.10,2013-03-10 11:21:00,
2013-03-10 07:36:00,46.5,37.0,30.01,SW,224,0.0,0.0,69,0.00,,,0.00,weatherlink.com 1.10,2013-03-10 11:36:00,
2013-03-10 07:51:00,46.3,37.0,30.02,SW,224,0.0,0.0,70,0.00,,,0.00,weatherlink.com 1.10,2013-03-10 11:51:00,
2013-03-10 08:06:00,46.2,37.0,30.02,SW,224,0.0,1.0,70,0.00,,,0.00,weatherlink.com 1.10,2013-03-10 12:06:00,
2013-03-10 08:21:00,45.9,37.0,30.02,SW,224,0.0,0.0,71,0.00,,,0.00,weatherlink.com 1.10,2013-03-10 12:21:00,
2013-03-10 08:36:00,45.8,37.0,30.02,SW,224,0.0,0.0,72,0.00,,,0.00,weatherlink.com 1.10,2013-03-10 12:36:00,
2013-03-10 08:51:00,46.0,37.0,30.03,SW,224,0.0,1.0,72,0.00,,,0.00,weatherlink.com 1.10,2013-03-10 12:51:00,
2013-03-10 09:06:00,46.7,37.0,30.03,SW,224,0.0,0.0,70,0.00,,,0.00,weatherlink.com 1.10,2013-03-10 13:06:00,
2013-03-10 09:21:00,47.4,37.0,30.02,South,187,0.0,3.0,67,0.00,,,0.00,weatherlink.com 1.10,2013-03-10 13:21:00,
2013-03-10 09:36:00,49.5,36.0,30.02,SE,127,2.0,2.0,60,0.00,,,0.00,weatherlink.com 1.10,2013-03-10 13:36:00,
2013-03-10 09:51:00,52.8,35.0,30.02,ESE,117,2.0,8.0,52,0.00,,,0.00,weatherlink.com 1.10,2013-03-10 13:51:00,
2013-03-10 10:06:00,54.1,35.0,30.02,SSE,155,0.0,8.0,49,0.00,,,0.00,weatherlink.com 1.10,2013-03-10 14:06:00,
2013-03-10 10:21:00,54.5,35.0,30.02,South,170,2.0,7.0,48,0.00,,,0.00,weatherlink.com 1.10,2013-03-10 14:21:00,
2013-03-10 10:36:00,54.8,35.0,30.01,ESE,112,4.0,6.0,47,0.00,,,0.00,weatherlink.com 1.10,2013-03-10 14:36:00,
2013-03-10 10:51:00,55.5,35.0,30.01,South,186,1.0,7.0,46,0.00,,,0.00,weatherlink.com 1.10,2013-03-10 14:51:00,
2013-03-10 11:06:00,56.0,35.0,30.00,SSE,165,1.0,6.0,46,0.00,,,0.00,weatherlink.com 1.10,2013-03-10 15:06:00,
2013-03-10 11:21:00,56.8,35.0,30.00,South,175,3.0,6.0,45,0.00,,,0.00,weatherlink.com 1.10,2013-03-10 15:21:00,
2013-03-10 11:36:00,57.8,36.0,30.00,South,184,6.0,8.0,44,0.00,,,0.00,weatherlink.com 1.10,2013-03-10 15:36:00,
2013-03-10 11:51:00,59.8,35.0,30.01,SE,140,5.0,9.0,40,0.00,,,0.00,weatherlink.com 1.10,2013-03-10 15:51:00,
2013-03-10 12:06:00,61.1,35.0,30.01,SSW,192,7.0,16.0,38,0.00,,,0.00,weatherlink.com 1.10,2013-03-10 16:06:00,
2013-03-10 12:21:00,61.5,35.0,30.00,South,188,2.0,13.0,37,0.00,,,0.00,weatherlink.com 1.10,2013-03-10 16:21:00,
2013-03-10 12:36:00,62.2,35.0,29.99,ESE,120,4.0,10.0,36,0.00,,,0.00,weatherlink.com 1.10,2013-03-10 16:36:00,
2013-03-10 12:51:00,63.0,34.0,29.98,SSW,198,7.0,16.0,34,0.00,,,0.00,weatherlink.com 1.10,2013-03-10 16:51:00,
2013-03-10 13:06:00,63.5,34.0,29.97,South,178,8.0,13.0,34,0.00,,,0.00,weatherlink.com 1.10,2013-03-10 17:06:00,
2013-03-10 13:21:00,63.6,35.0,29.97,South,188,5.0,14.0,34,0.00,,,0.00,weatherlink.com 1.10,2013-03-10 17:21:00,
2013-03-10 13:36:00,64.3,34.0,29.96,South,187,5.0,13.0,33,0.00,,,0.00,weatherlink.com 1.10,2013-03-10 17:36:00,
2013-03-10 13:51:00,65.0,34.0,29.96,SSW,210,7.0,18.0,32,0.00,,,0.00,weatherlink.com 1.10,2013-03-10 17:51:00,
2013-03-10 14:06:00,65.2,34.0,29.95,SSW,198,5.0,15.0,31,0.00,,,0.00,weatherlink.com 1.10,2013-03-10 18:06:00,
2013-03-10 14:21:00,65.8,34.0,29.94,SSE,164,7.0,15.0,31,0.00,,,0.00,weatherlink.com 1.10,2013-03-10 18:21:00,
2013-03-10 14:37:00,65.5,33.0,29.95,SE,126,6.0,14.0,30,0.00,,,0.00,weatherlink.com 1.10,2013-03-10 18:37:00,
2013-03-10 14:52:00,65.6,33.0,29.94,South,172,2.0,10.0,30,0.00,,,0.00,weatherlink.com 1.10,2013-03-10 18:52:00,
2013-03-10 15:07:00,66.3,34.0,29.92,ESE,114,2.0,13.0,30,0.00,,,0.00,weatherlink.com 1.10,2013-03-10 19:07:00,
2013-03-10 15:22:00,67.0,34.0,29.91,South,182,3.0,13.0,29,0.00,,,0.00,weatherlink.com 1.10,2013-03-10 19:22:00,
2013-03-10 15:37:00,68.3,34.0,29.90,South,186,5.0,12.0,28,0.00,,,0.00,weatherlink.com 1.10,2013-03-10 19:37:00,
2013-03-10 15:52:00,69.1,34.0,29.89,South,190,3.0,12.0,27,0.00,,,0.00,weatherlink.com 1.10,2013-03-10 19:52:00,
2013-03-10 16:07:00,68.9,33.0,29.88,SE,126,2.0,16.0,26,0.00,,,0.00,weatherlink.com 1.10,2013-03-10 20:07:00,
2013-03-10 16:37:00,68.1,32.0,29.89,SSW,193,3.0,10.0,26,0.00,,,0.00,weatherlink.com 1.10,2013-03-10 20:37:00,
2013-03-10 16:52:00,68.0,33.0,29.89,SSE,152,6.0,12.0,27,0.00,,,0.00,weatherlink.com 1.10,2013-03-10 20:52:00,
2013-03-10 17:07:00,68.1,34.0,29.89,SW,221,5.0,13.0,28,0.00,,,0.00,weatherlink.com 1.10,2013-03-10 21:07:00,
2013-03-10 17:22:00,68.1,35.0,29.89,ESE,119,5.0,9.0,29,0.00,,,0.00,weatherlink.com 1.10,2013-03-10 21:22:00,
2013-03-10 17:37:00,68.1,35.0,29.88,SE,131,1.0,9.0,29,0.00,,,0.00,weatherlink.com 1.10,2013-03-10 21:37:00,
2013-03-10 17:52:00,68.1,34.0,29.86,SE,142,2.0,11.0,28,0.00,,,0.00,weatherlink.com 1.10,2013-03-10 21:52:00,
2013-03-10 18:07:00,67.6,34.0,29.85,East,89,5.0,8.0,29,0.00,,,0.00,weatherlink.com 1.10,2013-03-10 22:07:00,
2013-03-10 18:22:00,67.4,34.0,29.84,SSW,195,0.0,9.0,29,0.00,,,0.00,weatherlink.com 1.10,2013-03-10 22:22:00,
2013-03-10 18:37:00,67.2,34.0,29.84,ESE,107,2.0,7.0,29,0.00,,,0.00,weatherlink.com 1.10,2013-03-10 22:37:00,
2013-03-10 18:52:00,66.8,34.0,29.85,SE,138,2.0,9.0,30,0.00,,,0.00,weatherlink.com 1.10,2013-03-10 22:52:00,
2013-03-10 19:07:00,66.3,34.0,29.84,SSE,156,0.0,4.0,30,0.00,,,0.00,weatherlink.com 1.10,2013-03-10 23:07:00,
2013-03-10 19:22:00,66.2,34.0,29.83,SE,128,5.0,11.0,30,0.00,,,0.00,weatherlink.com 1.10,2013-03-10 23:22:00,
2013-03-10 19:37:00,66.1,34.0,29.83,SE,129,0.0,8.0,30,0.00,,,0.00,weatherlink.com 1.10,2013-03-10 23:37:00,
2013-03-10 19:52:00,65.6,35.0,29.84,SSE,159,3.0,3.0,32,0.00,,,0.00,weatherlink.com 1.10,2013-03-10 23:52:00,
2013-03-10 20:07:00,64.9,35.0,29.84,SSE,163,0.0,3.0,33,0.00,,,0.00,weatherlink.com 1.10,2013-03-11 00:07:00,
2013-03-10 20:22:00,64.3,34.0,29.82,SSE,150,1.0,7.0,33,0.00,,,0.00,weatherlink.com 1.10,2013-03-11 00:22:00,
2013-03-10 20:37:00,64.7,35.0,29.83,South,180,0.0,6.0,33,0.00,,,0.00,weatherlink.com 1.10,2013-03-11 00:37:00,
2013-03-10 21:07:00,64.2,34.0,29.82,SW,224,0.0,3.0,33,0.00,,,0.00,weatherlink.com 1.10,2013-03-11 01:07:00,
2013-03-10 21:22:00,63.2,36.0,29.82,NE,34,0.0,2.0,36,0.00,,,0.00,weatherlink.com 1.10,2013-03-11 01:22:00,
2013-03-10 21:37:00,62.4,36.0,29.82,NE,34,0.0,1.0,37,0.00,,,0.00,weatherlink.com 1.10,2013-03-11 01:37:00,
2013-03-10 21:52:00,61.8,36.0,29.82,South,184,0.0,2.0,38,0.00,,,0.00,weatherlink.com 1.10,2013-03-11 01:52:00,
2013-03-10 22:07:00,62.8,36.0,29.82,SE,131,1.0,5.0,37,0.00,,,0.00,weatherlink.com 1.10,2013-03-11 02:07:00,
2013-03-10 22:22:00,63.4,35.0,29.84,South,176,2.0,8.0,35,0.00,,,0.00,weatherlink.com 1.10,2013-03-11 02:22:00,
2013-03-10 22:37:00,62.8,39.0,29.82,South,178,3.0,12.0,42,0.00,,,0.00,weatherlink.com 1.10,2013-03-11 02:37:00,
2013-03-10 22:52:00,62.6,38.0,29.84,SW,221,4.0,4.0,40,0.00,,,0.00,weatherlink.com 1.10,2013-03-11 02:52:00,
2013-03-10 23:07:00,61.8,44.0,29.84,South,173,0.0,6.0,52,0.02,,,0.02,weatherlink.com 1.10,2013-03-11 03:07:00,
2013-03-10 23:22:00,60.1,42.0,29.84,SSE,153,0.0,7.0,51,0.02,,,0.02,weatherlink.com 1.10,2013-03-11 03:22:00,
2013-03-10 23:37:00,60.2,41.0,29.85,SSE,159,9.0,17.0,50,0.02,,,0.02,weatherlink.com 1.10,2013-03-11 03:37:00,
2013-03-10 23:52:00,59.3,45.0,29.84,South,188,0.0,9.0,59,0.03,,,0.03,weatherlink.com 1.10,2013-03-11 03:52:00,